Andrews, NC

4:43 PM EDT on March 27, 2017 (GMT -0400)
Andrews

Weather History for KRHP - July, 2012

Change the Weather History Date:

Wednesday, July 4, 2012

  Actual Average (KMMI) Record (KMMI)
Temperature  
Mean Temperature 74 °F -  
Max Temperature 86 °F 87 °F 95 °F (2016)
Min Temperature 62 °F 64 °F 57 °F (2014)
Cooling Degree Days 9    
Growing Degree Days 24 (Base 50)    
Moisture  
Dew Point 70 °F    
Average Humidity 88    
Maximum Humidity 100    
Minimum Humidity 62    
Precipitation  
Precipitation 0.00 in - - ()
Sea Level Pressure  
Sea Level Pressure 30.09 in    
Wind  
Wind Speed 1 mph (WNW)    
Max Wind Speed 8 mph    
Max Gust Speed -    
Visibility 8 miles    
Events      
Averages and records for this station are not official NWS values.
T = Trace of Precipitation, MM = Missing Value Source: NWS Daily Summary

Daily Weather History Graph

Daily Weather History Graph

Search for Another Location

Airport or City:

Trip Planner

Search our weather history database for the weather conditions in past years. The results will help you decide how hot, cold, wet, or windy it might be!

Date:

Astronomy

Jul. 04, 2012 Rise Set
Actual Time 6:26 AM EDT 8:53 PM EDT
Civil Twilight 5:56 AM EDT 9:23 PM EDT
Nautical Twilight 5:20 AM EDT 9:59 PM EDT
Astronomical Twilight 4:39 AM EDT 10:39 PM EDT
Moon 9:36 PM EDT (7/4) 7:24 AM EDT (7/4)
Length of Visible Light 15h 26m
Length of Day
14h 27m
Full, 99% of the Moon is Illuminated
Jul 4
Full
Jul 10
Last Quarter
Jul 19
New
Jul 26
First Quarter
Aug 1
Full

Hourly Weather History & Observations

Time (EDT) Temp. Heat Index Dew Point Humidity Pressure Visibility Wind Dir Wind Speed Gust Speed Precip Events Conditions
12:15 AM 69.8 °F - 68.0 °F 94% 30.12 in 10.0 mi Calm Calm - N/A   Clear
12:35 AM 68.0 °F - 68.0 °F 100% 30.11 in 7.0 mi Calm Calm - N/A   Clear
12:55 AM 68.0 °F - 68.0 °F 100% 30.11 in 5.0 mi Calm Calm - N/A   Clear
1:15 AM 68.0 °F - 68.0 °F 100% 30.11 in 7.0 mi NNE 3.5 mph - N/A   Clear
1:35 AM 68.0 °F - 66.2 °F 94% 30.11 in 5.0 mi Calm Calm - N/A   Clear
1:55 AM 68.0 °F - 66.2 °F 94% 30.11 in 7.0 mi Calm Calm - N/A   Clear
2:15 AM 66.2 °F - 66.2 °F 100% 30.11 in 7.0 mi Calm Calm - N/A   Clear
2:35 AM 66.2 °F - 66.2 °F 100% 30.11 in 7.0 mi Calm Calm - N/A   Mostly Cloudy
2:55 AM 66.2 °F - 66.2 °F 100% 30.10 in 7.0 mi Calm Calm - N/A   Overcast
3:15 AM 66.2 °F - 66.2 °F 100% 30.10 in 1.5 mi Calm Calm - N/A   Overcast
3:35 AM 66.2 °F - 66.2 °F 100% 30.10 in 0.8 mi Calm Calm - N/A   Overcast
4:15 AM 64.4 °F - 64.4 °F 100% 30.09 in 5.0 mi Calm Calm - N/A   Clear
4:35 AM 64.4 °F - 64.4 °F 100% 30.09 in 7.0 mi Calm Calm - N/A   Clear
4:55 AM 64.4 °F - 64.4 °F 100% 30.09 in 4.0 mi Calm Calm - N/A   Clear
5:15 AM 64.4 °F - 64.4 °F 100% 30.10 in 5.0 mi Calm Calm - N/A   Clear
5:35 AM 62.6 °F - 62.6 °F 100% 30.10 in 7.0 mi Calm Calm - N/A   Clear
5:55 AM 62.6 °F - 62.6 °F 100% 30.10 in 5.0 mi Calm Calm - N/A   Clear
6:15 AM 62.6 °F - 62.6 °F 100% 30.10 in 1.8 mi Calm Calm - N/A   Mostly Cloudy
6:35 AM 62.6 °F - 62.6 °F 100% 30.11 in 3.0 mi Calm Calm - N/A   Overcast
6:55 AM 62.6 °F - 62.6 °F 100% 30.10 in 3.0 mi Calm Calm - N/A   Scattered Clouds
7:15 AM 64.4 °F - 64.4 °F 100% 30.11 in 5.0 mi Calm Calm - N/A   Clear
7:35 AM 64.4 °F - 64.4 °F 100% 30.11 in 5.0 mi Calm Calm - N/A   Clear
7:55 AM 64.4 °F - 64.4 °F 100% 30.12 in 5.0 mi Calm Calm - N/A   Scattered Clouds
8:15 AM 66.2 °F - 66.2 °F 100% 30.13 in 4.0 mi Calm Calm - N/A   Scattered Clouds
8:35 AM 68.0 °F - 68.0 °F 100% 30.12 in 7.0 mi Calm Calm - N/A   Scattered Clouds
9:15 AM 69.8 °F - 68.0 °F 94% 30.12 in 10.0 mi Calm Calm - N/A   Clear
9:35 AM 71.6 °F - 68.0 °F 88% 30.12 in 10.0 mi Calm Calm - N/A   Clear
9:55 AM 73.4 °F - 68.0 °F 83% 30.12 in 10.0 mi Calm Calm - N/A   Clear
10:15 AM 75.2 °F - 69.8 °F 83% 30.12 in 10.0 mi WSW 3.5 mph - N/A   Clear
10:35 AM 77.0 °F - 68.0 °F 74% 30.12 in 10.0 mi SW 3.5 mph - N/A   Clear
10:55 AM 78.8 °F - 69.8 °F 74% 30.12 in 10.0 mi WSW 3.5 mph - N/A   Clear
11:15 AM 80.6 °F 83.9 °F 69.8 °F 70% 30.12 in 10.0 mi West 3.5 mph - N/A   Clear
11:35 AM 80.6 °F 83.9 °F 69.8 °F 70% 30.12 in 10.0 mi West 3.5 mph - N/A   Clear
11:55 AM 82.4 °F 86.3 °F 69.8 °F 66% 30.11 in 10.0 mi West 3.5 mph - N/A   Clear
12:15 PM 82.4 °F 86.3 °F 69.8 °F 66% 30.11 in 10.0 mi Calm Calm - N/A   Clear
12:35 PM 84.2 °F 89.6 °F 71.6 °F 66% 30.11 in 10.0 mi WSW 3.5 mph - N/A   Clear
12:55 PM 86.0 °F 91.8 °F 71.6 °F 62% 30.10 in 10.0 mi Calm Calm - N/A   Clear
1:15 PM 82.4 °F 87.2 °F 71.6 °F 70% 30.10 in 10.0 mi Calm Calm - N/A   Clear
1:35 PM 86.0 °F 91.8 °F 71.6 °F 62% 30.09 in 10.0 mi Calm Calm - N/A   Clear
1:55 PM 82.4 °F 87.2 °F 71.6 °F 70% 30.09 in 10.0 mi NNW 4.6 mph - N/A   Scattered Clouds
2:15 PM 82.4 °F 88.2 °F 73.4 °F 74% 30.08 in 10.0 mi NW 4.6 mph - N/A   Scattered Clouds
2:35 PM 80.6 °F 84.6 °F 71.6 °F 74% 30.08 in 10.0 mi West 8.1 mph - N/A   Scattered Clouds
3:15 PM 73.4 °F - 69.8 °F 88% 30.09 in 10.0 mi Calm Calm - N/A   Scattered Clouds
3:55 PM 77.0 °F - 71.6 °F 83% 30.07 in 10.0 mi Calm Calm - N/A   Clear
4:15 PM 78.8 °F - 71.6 °F 78% 30.07 in 10.0 mi Calm Calm - N/A   Clear
4:35 PM 78.8 °F - 71.6 °F 78% 30.06 in 10.0 mi Calm Calm - N/A   Clear
4:55 PM 78.8 °F - 71.6 °F 78% 30.05 in 10.0 mi Calm Calm - N/A   Clear
5:15 PM 80.6 °F 85.4 °F 73.4 °F 79% 30.05 in 10.0 mi Calm Calm - N/A   Clear
5:35 PM 82.4 °F 88.2 °F 73.4 °F 74% 30.05 in 10.0 mi Calm Calm - N/A   Clear
5:55 PM 82.4 °F 88.2 °F 73.4 °F 74% 30.04 in 10.0 mi Calm Calm - N/A   Clear
6:15 PM 82.4 °F 88.2 °F 73.4 °F 74% 30.04 in 10.0 mi Calm Calm - N/A   Clear
6:35 PM 82.4 °F 89.5 °F 75.2 °F 79% 30.04 in 10.0 mi Calm Calm - N/A   Clear
6:55 PM 82.4 °F 88.2 °F 73.4 °F 74% 30.03 in 10.0 mi Calm Calm - N/A   Clear
7:15 PM 82.4 °F 89.5 °F 75.2 °F 79% 30.04 in 10.0 mi Calm Calm - N/A   Scattered Clouds
7:35 PM 82.4 °F 90.9 °F 77.0 °F 84% 30.04 in 10.0 mi Calm Calm - N/A   Clear
7:55 PM 80.6 °F 86.2 °F 75.2 °F 84% 30.04 in 10.0 mi NW 3.5 mph - N/A   Clear
8:15 PM 80.6 °F 86.2 °F 75.2 °F 84% 30.05 in 10.0 mi NNW 4.6 mph - N/A   Clear
8:35 PM 78.8 °F - 75.2 °F 89% 30.05 in 10.0 mi Calm Calm - N/A   Clear
8:55 PM 77.0 °F - 73.4 °F 89% 30.06 in 10.0 mi Calm Calm - N/A   Clear
9:15 PM 77.0 °F - 73.4 °F 89% 30.06 in 10.0 mi Calm Calm - N/A   Clear
9:35 PM 75.2 °F - 73.4 °F 94% 30.07 in 10.0 mi Calm Calm - N/A   Clear
9:55 PM 73.4 °F - 73.4 °F 100% 30.07 in 10.0 mi Calm Calm - N/A   Clear
10:15 PM 73.4 °F - 71.6 °F 94% 30.08 in 7.0 mi Calm Calm - N/A   Clear
10:35 PM 73.4 °F - 71.6 °F 94% 30.08 in 7.0 mi NW 3.5 mph - N/A   Clear
10:55 PM 73.4 °F - 71.6 °F 94% 30.09 in 10.0 mi Calm Calm - N/A   Clear
11:15 PM 71.6 °F - 71.6 °F 100% 30.09 in 7.0 mi Calm Calm - N/A   Clear
11:35 PM 71.6 °F - 71.6 °F 100% 30.10 in 7.0 mi Calm Calm - N/A   Clear
11:55 PM 71.6 °F - 71.6 °F 100% 30.10 in 5.0 mi Calm Calm - N/A   Clear